Regional Weather Roundup
Issued by NWS

Home | Current Version | Previous Version | Graphics & Text | Print | Product List | Glossary On
Versions: 1 2 3 4 5 6 7 8 9 10 11 12 13 14 15 16 17 18 19 20 21 22 23 24 25 26 27 28 29 30 31 32 33 34 35 36 37 38 39 40 41 42 43 44 45 46 47 48 49 50
746
ASUS44 KLIX 180710
RWRLA
LOUISIANA WEATHER ROUNDUP
NATIONAL WEATHER SERVICE NEW ORLEANS LA
200 AM CDT THU SEP 18 2014

NOTE: "FAIR" INDICATES FEW OR NO CLOUDS BELOW 12,000 FEET WITH NO
      SIGNIFICANT WEATHER AND/OR OBSTRUCTIONS TO VISIBILITY.
      SKY/WX - SKY CONDITION AND SIGNIFICANT WEATHER.
      TMP - AIR TEMPERATURE.    DP   - DEWPOINT TEMPERATURE.
      RH  - RELATIVE HUMIDITY.  PRES - PRESSURE.
      HX  - HEAT INDEX.         WCI  - WIND CHILL INDEX.

*  THESE STATIONS ARE NOT NWS OR FAA STATIONS AND ARE NOT UNDER
   NWS QUALITY CONTROL.

LAZ040-048-061>063-065-066-069-180800-
SOUTHEAST LOUISIANA

CITY           SKY/WX    TMP DP  RH WIND       PRES   REMARKS
N.O. AUDUBON     N/A     75  75  99 MISG        N/A
N.O. INTL ARPT PTCLDY    75  72  90 CALM      29.90F
N.O. LAKEFRONT CLEAR     80  73  79 SW6       29.91S
N.O. DOWNTOWN* FAIR      79  70  73 CALM      29.91F
SLIDELL        PTCLDY    73  70  90 CALM      29.90F
BATON ROUGE    PTCLDY    74  73  97 CALM      29.90F
BOOTHVILLE     CLEAR     80  76  87 CALM      29.90F
BELLE CHASSE   CLEAR     73  70  90 CALM      29.90F
BOGALUSA*        N/A     74  71  89 CALM      29.92F FOG
GALLIANO*      NOT AVBL
NEW ROADS*     FOG       73  73  98 CALM      29.91F VSB<1/4
GONZALES*      FAIR      73  73 100 CALM      29.90S
HAMMOND*       CLEAR     73  70  88 CALM      29.92S
HOUMA*         PTCLDY   N/A N/A N/A CALM      29.90F
PORT FOURCHON* SUNNY     79  73  83 NW5       29.94S

$$

LAZ041-044-053-054-180800-
SOUTHWEST LOUISIANA

CITY           SKY/WX    TMP DP  RH WIND       PRES   REMARKS
LAKE CHARLES   CLOUDY    75  74  96 CALM      29.89F
LAFAYETTE      CLOUDY    76  76 100 CALM      29.90F
PATTERSON      PTCLDY    73  73 100 CALM      29.92
SALT POINT       N/A     79  75  87 CALM      29.89F
NEW IBERIA     PTCLDY    76  74  93 CALM      29.90F FOG
CHENAULT AIRPK NOT AVBL

$$

LAZ027-028-180800-
CENTRAL LOUISIANA

CITY           SKY/WX    TMP DP  RH WIND       PRES   REMARKS
FORT POLK      CLOUDY    74  72  93 CALM      29.91F
ALEXANDRIA INT MOCLDY    74  72  93 CALM      29.89F
ALEXANDRIA     PTCLDY    71  70  96 CALM      29.90F

$$

LAZ001-002-180800-
NORTHWEST LOUISIANA

CITY           SKY/WX    TMP DP  RH WIND       PRES   REMARKS
SHREVEPORT     CLOUDY    75  71  87 SW3       29.89S
BARKSDALE AFB  MOCLDY    76  71  83 S2        29.90S
DTN SHREVEPORT CLOUDY    76  71  85 SW5       29.89F

$$

LAZ014-016-180800-
NORTHEAST LOUISIANA

CITY           SKY/WX    TMP DP  RH WIND       PRES   REMARKS
MONROE         CLOUDY    73  71  93 CALM      29.91S
TALLULAH       MOCLDY    72  69  90 CALM      29.90F

$$




USA.gov is the U.S. government's official web portal to all federal, state and local government web resources and services.